Location: Colconda
(10.2500°N, 61.4333°W)
Time: 11:03:41
(UTC+00:00)

Daily predictions for brighter satellites

Satellite Brightness Start Highest point End
(mag) Time Altitude Azimuth Time Altitude Azimuth Time Altitude Azimuth
ATLAS 2AS CENTAUR RB 2.0 22:36:02 10° WSW 22:38:53 68° SSE 22:50:39 10° E
Cosmos 2123 Rocket 4.1 22:36:45 10° N 22:42:55 85° W 22:49:07 10° S
Cosmos 2082 Rocket 4.3 22:40:22 10° SW 22:45:20 33° WNW 22:50:21 10° N
ARIANE 5 DEB (SYLDA) 4.4 22:46:22 10° SSW 22:46:41 10° SSW 22:47:01 10° S
ARIANE 5 R/B 4.1 22:34:11 10° W 22:47:38 55° S 22:51:46 10° ESE
CZ-3C R/B 4.0 22:43:42 10° SSW 22:48:29 37° SE 23:16:58 10° ENE
CZ-3C R/B 4.0 22:43:43 10° SSW 22:48:29 37° SE 23:16:58 10° ENE
CZ-3C R/B 4.0 22:43:42 10° SSW 22:48:30 37° SE 23:16:59 10° ENE
Cosmos 1503 Rocket 4.4 22:43:37 10° NNW 22:48:46 68° WSW 22:53:59 10° S
FENGYUN 3A 4.4 22:45:44 10° S 22:50:57 57° WSW 22:56:12 10° NNW
IRS-1A Rocket 4.3 22:46:34 10° SSE 22:52:04 85° WSW 22:57:34 10° NNW
ATLAS 3B R/B 3.9 22:45:12 10° SW 22:52:21 52° WNW 22:59:17 10° N
Cosmos 1602 3.7 22:52:09 10° N 22:55:58 89° W 22:59:47 10° S
NOAA 12 4.2 22:50:50 10° S 22:56:03 82° WSW 23:01:17 10° NNW
Cosmos 2208 Rocket 4.5 22:52:57 10° SSE 22:57:47 38° ESE 23:02:33 10° NE
Envisat 4.2 22:58:17 10° SE 23:02:11 23° ENE 23:06:09 10° NNE
FREGAT/IRIS 3.4 23:02:57 13° SE 23:05:04 29° ENE 23:07:40 10° NNE
Cosmos 1867 4.2 23:03:33 10° NNW 23:08:52 57° WSW 23:14:08 10° S
Cosmos 1674 Rocket 3.7 23:05:47 10° S 23:10:05 54° E 23:14:26 10° NNE
Ariane H10-3 4.2 13:11:14 10° W 23:10:08 41° SSW 23:15:53 14° SE
Cosmos 968 Rocket 3.5 23:05:44 10° NNW 23:10:57 89° W 23:16:09 10° SSE
Lacrosse 4 Rocket 2.5 23:07:17 10° NNW 23:11:34 48° WSW 23:15:46 10° S
COSMOS 2487 3.9 23:08:57 10° SSW 23:12:15 40° WNW 23:15:33 10° N
GPS 2-14 Rocket1 3.6 23:08:30 10° NW 23:12:15 40° NNE 23:15:13 15° E
Okean 3 3.6 23:08:12 10° S 23:12:23 51° E 23:16:32 10° NNE
Cosmos 1802 Rocket 4.0 23:08:32 10° S 23:14:47 86° E 23:21:08 10° N
PSLV R/B 3.2 23:15:14 10° NW 23:18:21 59° NE 23:19:43 28° ESE
Cosmos 2278 4.1 23:13:57 10° N 23:19:20 44° ENE 23:23:08 19° SE
Cosmos 1656 3.7 23:21:08 10° N 23:26:35 61° ENE 23:30:26 19° SSE
Okean 2 Rocket 3.5 23:31:52 10° NNW 23:36:14 64° W 23:40:40 10° S
Thor Agena Rocket 3.6 23:33:43 10° N 23:38:55 80° WNW 23:44:02 10° SSW
SJ-6B 2.7 23:38:08 42° SE 23:39:01 55° ENE 23:42:40 10° N
Cosmos 1536 2.9 23:36:02 10° N 23:40:05 80° W 23:42:52 20° S
Alouette 2 Rocket 4.1 23:34:22 10° N 23:40:28 52° E 23:42:04 35° SE
Resurs 01 Rocket 3.2 23:43:50 19° NE 23:43:50 19° NE 23:46:03 10° NNE
Cosmos 1697 Rocket 2.8 23:37:24 10° N 23:42:53 52° ENE 23:44:55 35° SE
Cosmos 468 Rocket 4.1 23:38:02 10° SSW 23:43:21 81° WNW 23:48:37 10° N
Cosmos 1864 Rocket 4.4 23:37:44 10° S 23:43:58 90° E 23:50:07 10° N
deb Kosmos-1763 4.5 23:44:21 10° SSW 23:48:01 62° WNW 23:51:41 10° N
H-II Stage 2 4.0 23:13:45 10° SW 23:49:29 46° SSE 23:52:10 34° ESE
Cosmos 1763 Rocket 3.4 23:44:23 10° S 23:49:38 65° ESE 23:54:52 10° NNE
DELTA 2 R/B (1) 3.7 23:45:39 10° SW 23:51:10 76° NW 23:56:43 10° NE
ERS-2 4.2 23:54:38 17° NNE 23:54:38 17° NNE 23:55:51 10° NNE
Cosmos 1500 3.5 23:49:46 10° N 23:53:00 51° NE 23:53:00 51° NE
